{"data":{"norad_id":31792,"epoch":"2026-05-25T03:14:27.542400Z","epoch_age_seconds":63653,"freshness":"FRESH","line1":"1 31792U 07029A   26145.13504100 -.00000243  00000+0 -10449-3 0  9993","line2":"2 31792  70.9395  42.8775 0007614 178.5223 181.5922 14.12934718974891","mean_motion":14.12934718,"eccentricity":0.0007614,"inclination_deg":70.9395,"raan_deg":42.8775,"arg_perigee_deg":178.5223,"mean_anomaly_deg":181.5922,"bstar":-0.00010449,"rev_number":97489,"period_min":101.91553662425,"perigee_km":843.84351766939,"apogee_km":854.84952957916,"semimajor_km":7227.4835236243,"source":"CELESTRAK","updated_at":"2026-05-25T13:37:55.117150Z"}}